Wind_Speed
30 31 31 30 31 31 31 31 31 31 32 33 33 34 34 35 36 36 36 36 36 36 36 37 38 38 39 39 39 39 38 39 39 39 39 39 39 40 40 41 41 41 40 40
31 32 31 32 31 31 31 31 31 32 32 33 33 34 35 35 35 35 36 36 36 37 37 37 37 38 39 40 40 40 40 40 40 40 40 41 40 40 41 42 42 41 42 42
31 30 31 32 32 32 32 32 32 32 33 34 35 35 34 34 35 35 35 36 36 36 36 37 37 38 39 39 40 40 40 41 41 42 42 42 42 42 42 42 42 42 43 43
30 30 30 31 32 32 33 32 33 33 34 34 35 36 34 34 34 34 34 35 35 36 36 36 37 38 38 39 40 40 41 41 42 42 43 43 43 44 44 43 43 43 43 43
29 30 30 31 30 32 32 32 33 34 34 35 35 36 35 33 33 33 33 34 35 35 36 37 38 38 39 39 39 40 40 41 42 43 43 44 44 44 44 44 44 45 44 43
30 30 30 30 30 31 31 32 33 34 34 35 34 36 35 33 32 32 33 33 34 35 35 36 37 38 39 40 40 40 41 42 43 44 44 44 45 45 45 45 45 45 45 44
29 29 30 30 30 31 31 31 31 32 34 34 33 35 35 32 32 32 33 33 34 34 35 35 36 37 38 40 41 42 42 43 44 44 44 45 46 47 46 46 46 46 45 45
27 28 30 30 29 29 30 31 31 32 33 33 34 35 34 33 33 33 33 33 34 35 36 36 36 37 38 40 41 43 44 44 44 45 45 46 47 47 47 47 47 46 47 47
26 27 27 29 28 28 28 30 30 30 32 33 34 34 33 32 33 33 33 33 34 35 36 37 37 38 39 40 41 43 43 44 44 44 45 46 47 47 47 47 48 48 48 48
26 27 26 26 27 28 28 28 29 29 30 31 33 32 32 31 32 32 32 33 34 34 35 36 37 37 38 39 40 41 42 42 43 44 44 45 45 46 47 48 48 48 48 48
24 26 26 27 27 28 27 27 28 29 30 31 31 31 30 30 30 30 31 32 33 34 35 36 36 37 37 38 38 39 40 41 42 42 43 44 44 45 45 46 47 47 48 48
24 25 27 27 28 28 29 28 28 29 29 30 31 30 29 29 29 30 31 32 33 34 35 36 36 36 37 37 37 38 39 40 40 41 42 43 44 44 45 46 46 47 47 47
25 26 26 27 28 28 29 29 29 30 30 30 30 29 28 28 30 31 32 33 33 34 35 36 36 36 36 36 37 38 38 39 40 40 41 42 43 43 44 44 44 45 46 46
26 27 26 27 26 28 28 29 29 29 31 31 30 29 29 29 30 31 32 33 34 34 34 35 35 35 35 36 36 37 38 39 40 40 40 41 41 42 43 43 44 44 44 45
26 27 26 26 27 27 28 28 29 29 29 29 28 28 28 29 30 30 31 33 34 34 34 34 34 34 34 35 36 37 38 38 38 38 38 38 39 39 40 41 42 43 43 44
25 26 26 27 27 28 28 28 29 29 30 30 29 28 27 28 29 29 30 31 32 32 33 34 35 35 35 35 36 37 37 37 37 36 36 37 38 38 39 40 41 41 42 43
24 25 26 26 27 28 29 27 28 29 28 29 29 28 28 29 29 28 29 31 31 31 32 34 35 35 35 35 35 35 36 36 37 37 37 37 38 38 39 40 40 41 41 42
24 25 26 25 25 28 27 27 27 28 28 28 28 28 28 29 30 30 30 30 31 31 31 32 33 34 34 34 34 34 35 35 36 36 37 38 39 39 39 39 39 40 40 40
23 24 24 25 25 25 25 25 25 26 27 27 27 27 28 29 30 30 30 30 30 30 31 31 32 32 33 34 34 34 34 35 35 36 37 37 38 38 38 38 39 39 39 40
22 23 23 24 25 25 24 24 25 26 27 27 27 28 29 30 30 29 30 30 30 30 31 32 32 32 32 33 34 35 35 35 36 36 36 37 37 37 38 38 38 38 38 39
21 23 24 24 25 25 24 24 25 26 26 27 28 29 29 30 30 30 31 31 31 31 31 32 32 32 33 33 34 34 34 35 35 35 36 36 37 37 37 36 37 37 37 37
21 22 23 24 25 23 23 24 25 26 26 27 28 29 29 29 30 30 31 31 31 31 32 32 32 32 32 33 33 33 33 34 34 34 35 35 36 36 35 35 35 35 35 36
21 22 23 23 24 24 24 24 24 24 25 26 26 27 28 29 29 30 30 31 31 31 32 32 32 31 31 32 31 31 31 32 32 33 34 34 34 34 34 35 35 34 34 35
21 22 22 23 23 24 24 24 24 25 25 25 25 26 26 27 27 28 29 30 31 31 31 31 31 31 31 31 31 31 31 32 32 32 33 33 33 34 34 33 33 33 33 33
21 22 22 23 23 24 24 25 26 26 25 25 25 26 25 26 26 27 27 28 29 29 30 30 31 31 31 31 30 30 31 31 31 32 32 32 32 33 33 33 32 32 32 32
21 21 22 22 23 24 24 25 26 25 25 25 26 26 26 26 27 27 27 28 28 29 29 30 30 31 31 30 30 30 31 30 31 31 31 31 31 32 32 31 31 31 31 31
Wind_Direction
257 253 251 250 250 250 249 248 247 246 246 246 246 246 244 244 244 244 245 246 245 244 245 246 248 249 250 251 252 254 255 257 259 259 260 261 263 263 263 264 266 266 267 267
255 251 249 248 248 248 247 248 248 247 247 248 247 247 246 245 244 245 245 244 244 245 245 247 249 250 251 252 253 254 255 257 259 260 260 260 262 263 263 264 265 267 267 267
251 249 246 245 246 247 247 249 250 250 249 249 249 248 247 245 244 244 244 244 246 246 247 249 250 251 252 254 254 254 256 258 259 260 260 261 261 262 263 265 265 267 267 266
251 248 245 245 246 247 248 249 251 251 250 249 249 249 246 245 244 244 245 246 248 248 249 250 252 253 254 255 256 256 257 258 259 260 261 261 261 262 263 264 265 266 267 266
250 248 246 246 247 248 249 250 251 251 250 250 249 250 246 246 246 245 246 247 249 250 250 251 253 254 255 256 257 258 259 259 260 260 261 261 262 263 263 264 265 266 267 267
251 249 248 246 246 248 250 252 253 251 249 249 248 250 247 247 248 248 247 248 250 251 252 253 254 255 256 257 258 259 260 260 260 260 260 261 261 262 263 264 265 265 265 267
251 249 248 247 247 248 250 251 252 251 249 249 249 250 249 250 250 250 250 249 249 251 253 254 256 257 258 259 260 260 260 260 260 260 261 262 262 262 263 264 264 265 265 266
252 250 249 248 248 249 250 250 251 253 252 251 249 249 250 251 251 251 251 251 252 253 255 257 258 259 260 261 261 260 260 260 261 261 262 263 263 263 262 263 264 265 266 267
252 251 249 247 247 248 249 250 251 253 256 255 252 251 251 251 251 251 252 253 255 256 258 259 260 261 262 262 262 262 261 261 261 262 263 262 263 263 263 263 264 266 267 267
251 250 248 247 246 246 248 250 250 251 254 256 255 253 254 254 254 254 254 255 257 258 259 260 261 262 263 263 263 262 263 262 263 263 263 263 263 263 264 264 265 266 267 267
251 250 248 247 246 245 245 246 250 253 254 257 258 257 259 258 257 256 257 258 259 259 260 261 262 263 263 263 263 263 263 264 264 264 264 264 264 264 264 264 265 265 266 267
252 252 250 248 247 246 244 245 248 251 254 257 260 261 262 261 258 258 259 259 261 261 261 262 262 262 262 263 263 263 264 264 264 265 265 265 264 264 264 265 266 266 266 267
253 254 252 249 248 248 247 246 249 251 254 257 260 262 263 263 262 262 262 262 262 262 262 262 261 261 261 262 262 264 264 265 265 265 266 265 265 264 264 265 266 267 268 268
253 253 252 252 253 250 249 249 250 252 254 257 261 263 263 264 264 265 265 264 263 262 262 262 262 261 261 261 263 264 265 266 266 266 266 266 266 266 266 266 267 268 269 269
253 253 253 253 253 251 250 251 251 253 256 257 259 262 262 264 265 265 265 266 265 264 263 263 262 261 262 263 263 264 264 265 266 267 266 266 267 268 269 269 269 270 270 271
254 255 255 254 253 254 254 254 253 255 258 259 259 261 264 265 266 265 265 266 265 265 263 263 263 264 265 265 266 265 264 264 265 266 266 266 268 269 269 270 270 271 271 272
253 255 256 255 255 257 256 257 258 258 260 261 261 262 263 264 266 267 266 266 266 266 266 266 265 266 267 267 267 266 265 264 265 266 267 267 267 268 270 271 271 271 272 273
255 255 256 257 257 259 261 259 260 261 262 263 264 263 263 264 266 266 266 267 267 267 267 267 267 267 267 266 266 266 266 265 265 266 268 268 268 269 270 272 272 272 272 273
258 258 256 256 258 261 261 262 263 263 263 264 265 266 266 266 266 266 266 267 268 268 268 268 269 269 268 267 267 267 266 266 266 268 269 269 269 269 270 271 272 272 272 273
258 256 257 257 259 262 263 264 265 265 266 267 268 269 269 267 267 266 265 267 269 269 270 270 271 271 270 269 269 269 268 268 268 269 270 269 269 270 271 271 271 272 273 274
258 259 260 261 261 263 266 268 268 268 270 269 269 269 269 268 267 266 266 267 269 270 271 272 272 272 272 271 270 269 269 269 269 269 270 270 270 270 271 272 272 272 274 275
259 260 262 263 263 266 269 272 272 273 271 271 270 270 269 267 267 266 267 268 269 270 271 272 272 273 272 272 271 270 269 269 269 270 270 270 270 270 270 271 272 272 273 275
259 262 262 263 265 268 271 273 274 274 274 274 272 271 270 269 268 268 268 268 269 270 271 271 272 272 272 272 271 271 271 271 271 270 270 271 271 270 271 271 272 273 274 276
261 263 265 266 267 269 271 273 275 276 277 276 274 274 273 271 270 271 271 270 270 271 271 271 271 271 272 272 272 272 272 272 272 272 272 271 271 271 272 271 272 274 276 277
263 266 268 269 270 270 271 273 275 277 277 276 275 275 275 274 274 274 273 272 271 271 271 271 271 271 271 271 272 273 274 273 272 272 273 272 272 273 272 272 273 274 276 277
264 268 270 270 271 273 274 274 275 277 277 276 275 275 275 276 276 275 274 273 272 272 271 271 271 272 271 272 272 273 274 274 273 273 273 273 273 273 273 273 274 275 276 277
Height
5697 5699 5701 5703 5704 5706 5707 5708 5711 5713 5714 5716 5718 5720 5722 5725 5727 5730 5732 5735 5738 5741 5744 5746 5748 5750 5752 5754 5756 5758 5759 5761 5762 5763 5764 5765 5766 5766 5767 5767 5768 5768 5768 5769
5689 5691 5693 5694 5695 5697 5699 5700 5702 5704 5706 5707 5709 5711 5713 5716 5719 5721 5724 5726 5729 5732 5734 5737 5739 5741 5743 5744 5746 5748 5750 5751 5752 5754 5755 5756 5756 5757 5757 5758 5758 5758 5759 5759
5680 5684 5684 5685 5687 5689 5691 5693 5695 5696 5697 5698 5700 5702 5705 5707 5710 5713 5715 5717 5720 5722 5725 5727 5729 5731 5733 5735 5736 5738 5740 5741 5742 5743 5744 5745 5746 5746 5747 5747 5748 5748 5748 5748
5671 5674 5675 5677 5678 5680 5682 5685 5686 5686 5687 5689 5691 5693 5698 5699 5701 5704 5707 5709 5711 5713 5716 5718 5720 5722 5723 5725 5726 5728 5729 5730 5732 5733 5734 5735 5736 5736 5737 5737 5737 5737 5737 5737
5663 5666 5667 5669 5671 5672 5675 5676 5677 5677 5678 5680 5682 5683 5689 5691 5693 5696 5699 5701 5702 5705 5707 5709 5710 5712 5713 5715 5716 5718 5719 5720 5721 5721 5722 5723 5724 5725 5725 5726 5726 5726 5726 5726
5655 5657 5659 5661 5663 5664 5666 5667 5667 5667 5668 5670 5674 5675 5679 5683 5686 5688 5690 5692 5694 5696 5697 5699 5701 5702 5703 5705 5706 5707 5708 5708 5709 5710 5711 5712 5713 5714 5714 5715 5715 5715 5715 5715
5647 5649 5651 5653 5654 5656 5657 5659 5659 5659 5659 5662 5666 5666 5671 5675 5677 5679 5681 5683 5685 5686 5688 5689 5691 5692 5693 5694 5695 5696 5697 5697 5698 5699 5700 5701 5701 5702 5703 5703 5703 5703 5704 5703
5639 5641 5643 5644 5646 5648 5649 5651 5652 5652 5653 5655 5657 5658 5663 5666 5668 5670 5672 5674 5675 5676 5678 5679 5680 5681 5682 5683 5684 5685 5685 5686 5687 5688 5688 5689 5689 5690 5691 5691 5692 5692 5692 5692
5631 5634 5635 5636 5638 5640 5641 5642 5644 5645 5645 5647 5648 5651 5654 5657 5659 5661 5663 5664 5665 5667 5668 5669 5670 5671 5671 5672 5672 5673 5674 5674 5675 5676 5676 5677 5677 5678 5679 5679 5680 5680 5680 5680
5624 5626 5628 5629 5630 5632 5634 5636 5637 5637 5637 5638 5640 5643 5646 5648 5650 5652 5653 5654 5655 5657 5658 5658 5659 5660 5660 5661 5661 5662 5662 5663 5663 5664 5665 5665 5665 5666 5666 5667 5667 5667 5667 5667
5617 5619 5620 5621 5623 5625 5627 5628 5629 5630 5630 5631 5633 5638 5638 5640 5641 5642 5644 5644 5646 5647 5647 5648 5649 5649 5649 5650 5650 5651 5651 5652 5652 5653 5653 5653 5653 5654 5654 5655 5655 5655 5655 5654
5610 5611 5612 5614 5615 5617 5619 5620 5622 5623 5624 5624 5625 5631 5630 5631 5632 5633 5634 5635 5636 5636 5637 5638 5638 5639 5639 5640 5640 5640 5641 5641 5641 5641 5642 5642 5642 5642 5642 5642 5642 5642 5642 5641
5603 5604 5605 5606 5610 5610 5611 5613 5614 5615 5616 5617 5618 5624 5622 5622 5623 5624 5625 5625 5626 5627 5627 5627 5628 5629 5629 5630 5630 5630 5630 5630 5630 5630 5630 5630 5630 5630 5630 5630 5630 5630 5629 5629
5596 5597 5599 5601 5601 5603 5604 5606 5607 5607 5608 5609 5612 5614 5615 5614 5614 5615 5615 5616 5616 5617 5617 5617 5618 5619 5619 5620 5620 5620 5620 5619 5619 5619 5619 5619 5619 5619 5619 5619 5619 5618 5617 5617
5588 5590 5591 5593 5594 5595 5596 5598 5599 5600 5601 5603 5605 5605 5606 5606 5606 5606 5606 5606 5607 5607 5608 5608 5608 5609 5609 5609 5609 5609 5609 5609 5609 5609 5609 5609 5608 5608 5608 5608 5607 5607 5606 5605
5581 5583 5584 5585 5586 5587 5589 5590 5591 5592 5593 5594 5596 5597 5598 5597 5597 5597 5597 5597 5597 5598 5598 5598 5598 5599 5599 5599 5599 5599 5598 5598 5598 5598 5598 5598 5598 5597 5597 5597 5596 5595 5594 5593
5575 5576 5577 5579 5579 5579 5582 5584 5584 5585 5586 5587 5588 5590 5589 5589 5589 5588 5588 5588 5588 5588 5589 5589 5589 5589 5589 5589 5588 5588 5588 5588 5588 5588 5588 5587 5587 5587 5586 5586 5585 5584 5583 5582
5569 5569 5570 5571 5573 5573 5578 5577 5577 5578 5579 5579 5580 5580 5580 5580 5580 5580 5579 5580 5580 5580 5580 5579 5579 5579 5579 5578 5578 5578 5578 5577 5577 5577 5577 5576 5576 5576 5575 5574 5573 5572 5571 5570
5562 5563 5563 5564 5564 5566 5569 5570 5570 5570 5571 5572 5572 5572 5572 5571 5571 5572 5571 5571 5571 5570 5570 5570 5570 5569 5569 5568 5568 5568 5567 5567 5567 5566 5566 5565 5565 5565 5564 5563 5562 5561 5560 5559
5555 5556 5558 5557 5558 5559 5564 5563 5562 5563 5564 5565 5564 5563 5563 5562 5563 5565 5563 5562 5562 5561 5561 5560 5560 5559 5559 5558 5558 5558 5557 5557 5556 5556 5555 5555 5554 5553 5553 5552 5551 5550 5549 5548
5549 5550 5550 5551 5551 5552 5555 5555 5554 5556 5557 5556 5555 5554 5554 5554 5555 5555 5554 5553 5553 5552 5552 5551 5550 5549 5549 5548 5548 5547 5547 5546 5546 5545 5545 5544 5543 5543 5542 5541 5540 5539 5539 5537
5543 5543 5544 5544 5544 5548 5547 5547 5547 5547 5546 5546 5545 5545 5545 5545 5544 5544 5544 5544 5543 5543 5542 5541 5541 5540 5539 5538 5537 5537 5536 5536 5535 5535 5534 5533 5533 5532 5532 5531 5530 5529 5528 5527
5536 5538 5537 5538 5540 5540 5540 5539 5539 5538 5538 5537 5536 5536 5535 5535 5535 5535 5534 5534 5534 5533 5532 5532 5531 5530 5529 5528 5527 5527 5526 5525 5525 5524 5524 5523 5522 5522 5521 5521 5520 5519 5518 5517
5530 5530 5530 5531 5532 5532 5532 5531 5531 5530 5529 5528 5528 5527 5526 5526 5526 5525 5525 5524 5524 5523 5523 5522 5521 5521 5520 5519 5518 5517 5516 5515 5515 5514 5513 5513 5512 5511 5511 5510 5510 5509 5508 5506
5524 5523 5524 5524 5525 5524 5524 5523 5523 5522 5521 5520 5519 5519 5518 5518 5517 5516 5515 5514 5514 5514 5513 5513 5512 5511 5510 5509 5508 5508 5507 5506 5505 5504 5503 5503 5502 5501 5500 5500 5500 5499 5498 5497
5517 5517 5517 5518 5517 5517 5516 5515 5514 5514 5513 5512 5511 5511 5510 5509 5508 5507 5506 5505 5505 5504 5504 5503 5502 5501 5501 5500 5499 5498 5497 5496 5495 5495 5494 5493 5492 5491 5491 5491 5490 5489 5489 5487